Weather History for HESH - October, 2013

Change the Weather History Date:

Sunday, October 6, 2013

  Actual Average Record
Temperature  
Mean Temperature 78 °F -  
Max Temperature 86 °F - - ()
Min Temperature 69 °F - - ()
Cooling Degree Days 12    
Growing Degree Days 28 (Base 50)    
Moisture  
Dew Point 49 °F    
Average Humidity 37    
Maximum Humidity 49    
Minimum Humidity 28    
Precipitation  
Precipitation 0.00 in - - ()
Sea Level Pressure  
Sea Level Pressure 29.86 in    
Wind  
Wind Speed 16 mph ()    
Max Wind Speed 22 mph    
Max Gust Speed -    
T = Trace of Precipitation, MM = Missing Value Source: Averaged Metar Reports

Daily Weather History Graph

Daily Weather History Graph

Search for Another Location

Airport or City:

Trip Planner

Search our weather history database for the weather conditions in past years. The results will help you decide how hot, cold, wet, or windy it might be!

Date:

Astronomy

Oct. 06, 2013 Rise Set
Actual Time 5:37 AM EET 5:22 PM EET
Civil Twilight 5:14 AM EET 5:46 PM EET
Nautical Twilight 4:47 AM EET 6:13 PM EET
Astronomical Twilight 4:19 AM EET 6:40 PM EET
Moon 6:50 AM EET (10/6) 6:19 PM EET (10/6)
Length of Visible Light 12h 31m
Length of Day
11h 45m
New Moon, 2% of the Moon is Illuminated
Oct 6
New Moon
Oct 12
First Quarter
Oct 19
Full
Oct 27
Last Quarter
Nov 3
New

Hourly Weather History & Observations

Time (EET) Temp. Heat Index Dew Point Humidity Pressure Visibility Wind Dir Wind Speed Gust Speed Precip Events Conditions
12:00 AM 77.0 °F - 48.2 °F 36% 29.83 in - North 16.1 mph - N/A   Clear
1:00 AM 75.2 °F - 50.0 °F 41% 29.80 in - North 16.1 mph - N/A   Clear
2:00 AM 73.4 °F - 51.8 °F 47% 29.83 in - North 20.7 mph - N/A   Clear
3:00 AM 73.4 °F - 51.8 °F 47% 29.83 in - North 21.9 mph - N/A   Clear
4:00 AM 71.6 °F - 50.0 °F 46% 29.83 in - North 18.4 mph - N/A   Clear
5:00 AM 69.8 °F - 48.2 °F 46% 29.86 in - North 16.1 mph - N/A   Clear
6:00 AM 69.8 °F - 50.0 °F 49% 29.86 in - North 11.5 mph - N/A   Clear
7:00 AM 73.4 °F - 48.2 °F 41% 29.86 in - North 17.3 mph - N/A   Clear
8:00 AM 75.2 °F - 44.6 °F 34% 29.89 in - North 21.9 mph - N/A   Clear
9:00 AM 77.0 °F - 46.4 °F 34% 29.89 in - NNE 18.4 mph - N/A   Clear
10:00 AM 78.8 °F - 46.4 °F 32% 29.89 in - NNE 19.6 mph - N/A   Clear
11:00 AM 82.4 °F - 48.2 °F 30% 29.89 in - NNE 19.6 mph - N/A   Clear
12:00 PM 84.2 °F - 48.2 °F 29% 29.86 in - NNE 18.4 mph - N/A   Clear
1:00 PM 84.2 °F - 48.2 °F 29% 29.86 in - NNE 18.4 mph - N/A   Clear
2:00 PM 86.0 °F - 51.8 °F 31% 29.83 in - NNE 18.4 mph - N/A   Clear
3:00 PM 84.2 °F - 51.8 °F 33% 29.83 in - NNE 17.3 mph - N/A   Clear
4:00 PM 84.2 °F 82.8 °F 53.6 °F 35% 29.83 in - NNE 19.6 mph - N/A   Clear
5:00 PM 82.4 °F 81.4 °F 53.6 °F 37% 29.83 in - North 18.4 mph - N/A   Clear
6:00 PM 78.8 °F - 53.6 °F 42% 29.86 in - North 13.8 mph - N/A   Clear
7:00 PM 78.8 °F - 53.6 °F 42% 29.86 in - North 17.3 mph - N/A   Clear
8:00 PM 77.0 °F - 55.4 °F 47% 29.89 in - North 13.8 mph - N/A   Clear
9:00 PM 77.0 °F - 42.8 °F 29% 29.89 in - North 17.3 mph - N/A   Clear
10:00 PM 77.0 °F - 41.0 °F 28% 29.89 in - North 19.6 mph - N/A   Clear
11:00 PM 77.0 °F - 44.6 °F 32% 29.89 in - North 19.6 mph - N/A   Clear